Time,TemperatureF,DewpointF,PressureIn,WindDirection,WindDirectionDegrees,WindSpeedMPH,WindSpeedGustMPH,Humidity,HourlyPrecipIn,Conditions,Clouds,dailyrainin,SoftwareType,DateUTC
2015-03-30 00:04:00,44.4,37.9,30.10,SSW,195,6.0,13.0,78,0.00,,,0.04,meteohub,2015-03-30 04:04:00,
2015-03-30 00:09:00,44.2,37.8,30.10,South,186,7.0,13.0,78,0.00,,,0.00,meteohub,2015-03-30 04:09:00,
2015-03-30 00:14:00,44.2,37.8,30.10,SW,229,3.0,11.0,78,0.00,,,0.00,meteohub,2015-03-30 04:14:00,
2015-03-30 00:19:00,44.1,37.6,30.09,SSW,194,6.0,11.0,78,0.00,,,0.00,meteohub,2015-03-30 04:19:00,
2015-03-30 00:24:00,44.1,37.4,30.09,SSW,197,8.0,12.0,77,0.00,,,0.00,meteohub,2015-03-30 04:24:00,
2015-03-30 00:29:00,44.1,37.6,30.09,SSW,212,8.0,13.0,78,0.00,,,0.00,meteohub,2015-03-30 04:29:00,
2015-03-30 00:34:00,43.9,37.4,30.09,South,187,6.0,13.0,78,0.00,,,0.00,meteohub,2015-03-30 04:34:00,
2015-03-30 00:39:00,43.9,37.8,30.09,WSW,239,5.0,13.0,79,0.00,,,0.00,meteohub,2015-03-30 04:39:00,
2015-03-30 00:44:00,43.9,38.1,30.09,SW,228,8.0,13.0,80,0.00,,,0.00,meteohub,2015-03-30 04:44:00,
2015-03-30 00:49:00,43.9,38.1,30.09,SW,222,7.0,11.0,80,0.00,,,0.00,meteohub,2015-03-30 04:49:00,
2015-03-30 00:54:00,43.9,38.5,30.09,SW,236,5.0,10.0,81,0.00,,,0.00,meteohub,2015-03-30 04:54:00,
2015-03-30 00:59:00,43.9,38.5,30.09,SW,228,6.0,11.0,81,0.00,,,0.00,meteohub,2015-03-30 04:59:00,
2015-03-30 01:04:00,44.1,38.8,30.09,SSW,211,6.0,11.0,82,0.00,,,0.00,meteohub,2015-03-30 05:04:00,
2015-03-30 01:09:00,44.1,38.8,30.09,WSW,242,8.0,11.0,82,0.00,,,0.00,meteohub,2015-03-30 05:09:00,
2015-03-30 01:14:00,44.1,38.8,30.09,WSW,243,7.0,11.0,82,0.00,,,0.00,meteohub,2015-03-30 05:14:00,
2015-03-30 01:19:00,44.2,39.4,30.09,SW,233,6.0,12.0,83,0.00,,,0.00,meteohub,2015-03-30 05:19:00,
2015-03-30 01:24:00,44.4,39.6,30.09,WSW,255,7.0,12.0,83,0.00,,,0.00,meteohub,2015-03-30 05:24:00,
2015-03-30 01:29:00,44.6,40.1,30.09,WSW,245,11.0,11.0,84,0.00,,,0.00,meteohub,2015-03-30 05:29:00,
2015-03-30 01:34:00,44.6,40.5,30.09,West,263,10.0,14.0,85,0.00,,,0.00,meteohub,2015-03-30 05:34:00,
2015-03-30 01:39:00,44.6,40.6,30.09,WSW,239,11.0,14.0,86,0.00,,,0.00,meteohub,2015-03-30 05:39:00,
2015-03-30 01:44:00,44.4,40.8,30.08,WSW,240,11.0,15.0,87,0.00,,,0.00,meteohub,2015-03-30 05:44:00,
2015-03-30 01:49:00,44.4,41.2,30.08,WSW,243,11.0,17.0,88,0.00,,,0.00,meteohub,2015-03-30 05:49:00,
2015-03-30 01:54:00,44.4,41.2,30.08,SW,228,9.0,17.0,88,0.00,,,0.00,meteohub,2015-03-30 05:54:00,
2015-03-30 01:59:00,44.8,41.4,30.08,WSW,252,6.0,17.0,88,0.00,,,0.00,meteohub,2015-03-30 05:59:00,
2015-03-30 02:04:00,44.8,41.4,30.08,WSW,250,6.0,14.0,88,0.00,,,0.00,meteohub,2015-03-30 06:04:00,
2015-03-30 02:09:00,45.0,41.5,30.08,SW,236,6.0,14.0,88,0.00,,,0.00,meteohub,2015-03-30 06:09:00,
2015-03-30 02:14:00,45.0,41.5,30.08,SW,224,11.0,13.0,88,0.00,,,0.00,meteohub,2015-03-30 06:14:00,
2015-03-30 02:19:00,45.1,41.7,30.08,WSW,255,8.0,12.0,88,0.00,,,0.00,meteohub,2015-03-30 06:19:00,
2015-03-30 02:24:00,45.3,41.9,30.08,WSW,249,9.0,12.0,88,0.00,,,0.00,meteohub,2015-03-30 06:24:00,
2015-03-30 02:29:00,45.3,41.9,30.08,WSW,243,6.0,15.0,88,0.00,,,0.00,meteohub,2015-03-30 06:29:00,
2015-03-30 02:34:00,45.5,42.1,30.08,WSW,255,8.0,15.0,88,0.00,,,0.00,meteohub,2015-03-30 06:34:00,
2015-03-30 02:39:00,45.7,42.3,30.09,West,264,8.0,14.0,88,0.00,,,0.00,meteohub,2015-03-30 06:39:00,
2015-03-30 02:44:00,45.7,42.3,30.08,WSW,240,10.0,14.0,88,0.00,,,0.00,meteohub,2015-03-30 06:44:00,
2015-03-30 02:49:00,45.9,42.4,30.08,West,263,8.0,14.0,88,0.00,,,0.00,meteohub,2015-03-30 06:49:00,
2015-03-30 02:54:00,46.0,42.6,30.08,WSW,245,8.0,13.0,88,0.00,,,0.00,meteohub,2015-03-30 06:54:00,
2015-03-30 02:59:00,46.0,42.6,30.08,WSW,253,6.0,14.0,88,0.00,,,0.00,meteohub,2015-03-30 06:59:00,
2015-03-30 03:04:00,46.0,42.6,30.08,SW,232,8.0,14.0,88,0.00,,,0.00,meteohub,2015-03-30 07:04:00,
2015-03-30 03:09:00,46.2,42.8,30.08,WNW,283,9.0,13.0,88,0.00,,,0.00,meteohub,2015-03-30 07:09:00,
2015-03-30 03:14:00,46.6,43.0,30.09,West,259,13.0,14.0,87,0.00,,,0.00,meteohub,2015-03-30 07:14:00,
2015-03-30 03:19:00,46.8,43.2,30.09,West,274,5.0,17.0,87,0.00,,,0.00,meteohub,2015-03-30 07:19:00,
2015-03-30 03:24:00,46.9,43.0,30.09,WSW,255,10.0,17.0,86,0.00,,,0.00,meteohub,2015-03-30 07:24:00,
2015-03-30 03:29:00,47.1,42.8,30.09,SW,231,7.0,22.0,85,0.00,,,0.00,meteohub,2015-03-30 07:29:00,
2015-03-30 03:34:00,47.1,42.8,30.09,NW,307,5.0,22.0,85,0.00,,,0.00,meteohub,2015-03-30 07:34:00,
2015-03-30 03:39:00,47.1,42.6,30.09,WNW,283,9.0,22.0,84,0.00,,,0.00,meteohub,2015-03-30 07:39:00,
2015-03-30 03:44:00,46.9,42.4,30.09,WSW,258,8.0,21.0,84,0.00,,,0.00,meteohub,2015-03-30 07:44:00,
2015-03-30 03:49:00,46.6,42.1,30.09,WNW,283,9.0,18.0,84,0.00,,,0.00,meteohub,2015-03-30 07:49:00,
2015-03-30 03:54:00,46.4,41.9,30.09,WNW,297,9.0,18.0,84,0.00,,,0.00,meteohub,2015-03-30 07:54:00,
2015-03-30 03:59:00,46.0,41.5,30.09,West,278,7.0,20.0,84,0.00,,,0.00,meteohub,2015-03-30 07:59:00,
2015-03-30 04:04:00,45.9,41.4,30.09,WNW,297,7.0,20.0,84,0.00,,,0.00,meteohub,2015-03-30 08:04:00,
2015-03-30 04:09:00,45.7,41.2,30.09,WNW,288,5.0,16.0,84,0.00,,,0.00,meteohub,2015-03-30 08:09:00,
2015-03-30 04:14:00,45.3,40.8,30.09,SW,236,13.0,19.0,84,0.00,,,0.00,meteohub,2015-03-30 08:14:00,
2015-03-30 04:19:00,45.1,40.6,30.09,West,277,11.0,19.0,84,0.00,,,0.00,meteohub,2015-03-30 08:19:00,
2015-03-30 04:24:00,44.8,40.3,30.09,WSW,247,3.0,18.0,84,0.00,,,0.00,meteohub,2015-03-30 08:24:00,
2015-03-30 04:29:00,44.6,40.1,30.09,WSW,252,5.0,17.0,84,0.00,,,0.00,meteohub,2015-03-30 08:29:00,
2015-03-30 04:34:00,44.2,39.7,30.09,WNW,283,5.0,15.0,84,0.00,,,0.00,meteohub,2015-03-30 08:34:00,
2015-03-30 04:39:00,44.1,39.6,30.09,WNW,285,6.0,13.0,84,0.00,,,0.00,meteohub,2015-03-30 08:39:00,
2015-03-30 04:44:00,44.1,39.2,30.09,West,265,10.0,15.0,83,0.00,,,0.00,meteohub,2015-03-30 08:44:00,
2015-03-30 04:49:00,43.7,38.8,30.09,WNW,285,8.0,20.0,83,0.00,,,0.00,meteohub,2015-03-30 08:49:00,
2015-03-30 04:54:00,43.5,38.5,30.09,NW,309,4.0,20.0,82,0.00,,,0.00,meteohub,2015-03-30 08:54:00,
2015-03-30 04:59:00,43.3,38.3,30.09,WNW,285,5.0,14.0,82,0.00,,,0.00,meteohub,2015-03-30 08:59:00,
2015-03-30 05:04:00,43.2,37.8,30.09,WSW,254,4.0,18.0,81,0.00,,,0.00,meteohub,2015-03-30 09:04:00,
2015-03-30 05:09:00,43.2,37.8,30.10,WNW,284,4.0,18.0,81,0.00,,,0.00,meteohub,2015-03-30 09:09:00,
2015-03-30 05:14:00,43.0,37.6,30.10,West,281,5.0,12.0,81,0.00,,,0.00,meteohub,2015-03-30 09:14:00,
2015-03-30 05:19:00,42.6,37.2,30.10,West,273,3.0,12.0,81,0.00,,,0.00,meteohub,2015-03-30 09:19:00,
2015-03-30 05:24:00,42.4,37.0,30.10,West,273,4.0,12.0,81,0.00,,,0.00,meteohub,2015-03-30 09:24:00,
2015-03-30 05:29:00,42.3,36.9,30.10,WNW,290,6.0,12.0,81,0.00,,,0.00,meteohub,2015-03-30 09:29:00,
2015-03-30 05:34:00,42.1,36.7,30.10,WNW,295,7.0,9.0,81,0.00,,,0.00,meteohub,2015-03-30 09:34:00,
2015-03-30 05:39:00,42.1,36.7,30.10,WNW,283,4.0,7.0,81,0.00,,,0.00,meteohub,2015-03-30 09:39:00,
2015-03-30 05:44:00,41.7,36.3,30.11,WNW,293,3.0,8.0,81,0.00,,,0.00,meteohub,2015-03-30 09:44:00,
2015-03-30 05:49:00,41.7,36.3,30.11,West,278,5.0,10.0,81,0.00,,,0.00,meteohub,2015-03-30 09:49:00,
2015-03-30 05:54:00,41.7,36.0,30.11,WNW,288,2.0,10.0,80,0.00,,,0.00,meteohub,2015-03-30 09:54:00,
2015-03-30 05:59:00,41.5,35.8,30.11,West,276,2.0,10.0,80,0.00,,,0.00,meteohub,2015-03-30 09:59:00,
2015-03-30 06:04:00,41.4,36.0,30.12,West,280,2.0,7.0,81,0.00,,,0.00,meteohub,2015-03-30 10:04:00,
2015-03-30 06:09:00,41.4,36.0,30.12,West,280,5.0,7.0,81,0.00,,,0.00,meteohub,2015-03-30 10:09:00,
2015-03-30 06:14:00,41.2,35.8,30.12,WSW,258,2.0,7.0,81,0.00,,,0.00,meteohub,2015-03-30 10:14:00,
2015-03-30 06:19:00,41.2,35.8,30.12,SW,224,3.0,5.0,81,0.00,,,0.00,meteohub,2015-03-30 10:19:00,
2015-03-30 06:24:00,40.8,35.4,30.12,WSW,252,2.0,5.0,81,0.00,,,0.00,meteohub,2015-03-30 10:24:00,
2015-03-30 06:29:00,40.8,35.4,30.12,SW,224,4.0,4.0,81,0.00,,,0.00,meteohub,2015-03-30 10:29:00,
2015-03-30 06:34:00,40.8,35.4,30.13,WSW,238,4.0,6.0,81,0.00,,,0.00,meteohub,2015-03-30 10:34:00,
2015-03-30 06:39:00,40.8,35.8,30.13,WSW,240,4.0,6.0,82,0.00,,,0.00,meteohub,2015-03-30 10:39:00,
2015-03-30 06:44:00,40.6,35.6,30.14,WSW,246,5.0,7.0,82,0.00,,,0.00,meteohub,2015-03-30 10:44:00,
2015-03-30 06:49:00,40.5,35.4,30.14,SW,229,4.0,7.0,82,0.00,,,0.00,meteohub,2015-03-30 10:49:00,
2015-03-30 06:54:00,40.5,35.4,30.14,WSW,252,4.0,6.0,82,0.00,,,0.00,meteohub,2015-03-30 10:54:00,
2015-03-30 06:59:00,40.3,35.2,30.14,WSW,252,4.0,6.0,82,0.00,,,0.00,meteohub,2015-03-30 10:59:00,
2015-03-30 07:04:00,40.3,35.2,30.14,WSW,256,4.0,6.0,82,0.00,,,0.00,meteohub,2015-03-30 11:04:00,
2015-03-30 07:09:00,40.3,35.2,30.14,West,271,3.0,6.0,82,0.00,,,0.00,meteohub,2015-03-30 11:09:00,
2015-03-30 07:14:00,40.1,34.7,30.14,WSW,251,3.0,6.0,81,0.00,,,0.00,meteohub,2015-03-30 11:14:00,
2015-03-30 07:19:00,39.9,34.9,30.15,WSW,243,3.0,6.0,82,0.00,,,0.00,meteohub,2015-03-30 11:19:00,
2015-03-30 07:24:00,39.7,34.7,30.15,SW,236,5.0,6.0,82,0.00,,,0.00,meteohub,2015-03-30 11:24:00,
2015-03-30 07:29:00,39.6,34.5,30.15,SW,219,4.0,6.0,82,0.00,,,0.00,meteohub,2015-03-30 11:29:00,
2015-03-30 07:34:00,39.6,34.5,30.16,WSW,239,4.0,6.0,82,0.00,,,0.00,meteohub,2015-03-30 11:34:00,
2015-03-30 07:39:00,39.7,34.7,30.16,SW,236,3.0,6.0,82,0.00,,,0.00,meteohub,2015-03-30 11:39:00,
2015-03-30 07:44:00,39.9,34.9,30.17,SW,231,6.0,6.0,82,0.00,,,0.00,meteohub,2015-03-30 11:44:00,
2015-03-30 07:49:00,40.3,35.2,30.17,WSW,244,5.0,9.0,82,0.00,,,0.00,meteohub,2015-03-30 11:49:00,
2015-03-30 07:54:00,40.5,35.1,30.17,SW,214,5.0,9.0,81,0.00,,,0.00,meteohub,2015-03-30 11:54:00,
2015-03-30 07:59:00,40.6,35.2,30.17,WSW,252,4.0,9.0,81,0.00,,,0.00,meteohub,2015-03-30 11:59:00,
2015-03-30 08:04:00,40.8,35.1,30.17,WSW,243,4.0,8.0,80,0.00,,,0.00,meteohub,2015-03-30 12:04:00,
2015-03-30 08:09:00,40.8,35.1,30.18,SW,233,5.0,9.0,80,0.00,,,0.00,meteohub,2015-03-30 12:09:00,
2015-03-30 08:14:00,41.2,35.2,30.18,SW,219,4.0,9.0,79,0.00,,,0.00,meteohub,2015-03-30 12:14:00,
2015-03-30 08:19:00,41.2,35.4,30.18,SW,233,5.0,9.0,80,0.00,,,0.00,meteohub,2015-03-30 12:19:00,
2015-03-30 08:24:00,41.4,35.6,30.18,WSW,249,5.0,9.0,80,0.00,,,0.00,meteohub,2015-03-30 12:24:00,
2015-03-30 08:29:00,41.5,35.8,30.18,WSW,248,5.0,8.0,80,0.00,,,0.00,meteohub,2015-03-30 12:29:00,
2015-03-30 08:34:00,41.5,35.8,30.18,WSW,240,4.0,7.0,80,0.00,,,0.00,meteohub,2015-03-30 12:34:00,
2015-03-30 08:39:00,41.7,36.0,30.19,WSW,252,5.0,7.0,80,0.00,,,0.00,meteohub,2015-03-30 12:39:00,
2015-03-30 08:44:00,42.1,36.3,30.19,WSW,257,5.0,9.0,80,0.00,,,0.00,meteohub,2015-03-30 12:44:00,
2015-03-30 08:49:00,42.1,36.0,30.19,West,265,5.0,9.0,79,0.00,,,0.00,meteohub,2015-03-30 12:49:00,
2015-03-30 08:54:00,42.3,36.1,30.19,West,273,7.0,10.0,79,0.00,,,0.00,meteohub,2015-03-30 12:54:00,
2015-03-30 08:59:00,42.4,36.3,30.19,WSW,245,6.0,11.0,79,0.00,,,0.00,meteohub,2015-03-30 12:59:00,
2015-03-30 09:04:00,42.4,36.3,30.19,West,259,6.0,11.0,79,0.00,,,0.00,meteohub,2015-03-30 13:04:00,
2015-03-30 09:09:00,42.6,36.5,30.20,West,259,5.0,12.0,79,0.00,,,0.00,meteohub,2015-03-30 13:09:00,
2015-03-30 09:14:00,43.0,36.9,30.20,SW,236,8.0,12.0,79,0.00,,,0.00,meteohub,2015-03-30 13:14:00,
2015-03-30 09:19:00,43.2,36.5,30.20,West,264,5.0,12.0,77,0.00,,,0.00,meteohub,2015-03-30 13:19:00,
2015-03-30 09:24:00,43.5,36.5,30.20,West,259,10.0,11.0,76,0.00,,,0.00,meteohub,2015-03-30 13:24:00,
2015-03-30 09:29:00,43.7,36.3,30.20,WSW,240,4.0,11.0,75,0.00,,,0.00,meteohub,2015-03-30 13:29:00,
2015-03-30 09:34:00,44.1,37.0,30.20,WSW,255,5.0,13.0,76,0.00,,,0.00,meteohub,2015-03-30 13:34:00,
2015-03-30 09:39:00,44.6,37.6,30.20,WSW,239,6.0,13.0,76,0.00,,,0.00,meteohub,2015-03-30 13:39:00,
2015-03-30 09:44:00,45.0,37.6,30.20,SW,236,7.0,12.0,75,0.00,,,0.00,meteohub,2015-03-30 13:44:00,
2015-03-30 09:49:00,45.1,37.8,30.20,West,260,8.0,10.0,75,0.00,,,0.00,meteohub,2015-03-30 13:49:00,
2015-03-30 09:54:00,45.3,37.6,30.20,West,266,5.0,10.0,74,0.00,,,0.00,meteohub,2015-03-30 13:54:00,
2015-03-30 09:59:00,45.7,37.6,30.20,WSW,249,10.0,11.0,73,0.00,,,0.00,meteohub,2015-03-30 13:59:00,
2015-03-30 10:04:00,46.0,38.3,30.20,WSW,252,6.0,11.0,74,0.00,,,0.00,meteohub,2015-03-30 14:04:00,
2015-03-30 10:09:00,46.2,37.8,30.20,West,262,12.0,12.0,72,0.00,,,0.00,meteohub,2015-03-30 14:09:00,
2015-03-30 10:14:00,46.6,38.5,30.21,SW,224,6.0,13.0,73,0.00,,,0.00,meteohub,2015-03-30 14:14:00,
2015-03-30 10:19:00,47.1,38.8,30.20,WNW,285,3.0,14.0,73,0.00,,,0.00,meteohub,2015-03-30 14:19:00,
2015-03-30 10:24:00,47.1,37.4,30.21,WSW,256,9.0,14.0,69,0.00,,,0.00,meteohub,2015-03-30 14:24:00,
2015-03-30 10:29:00,47.5,38.1,30.21,WSW,245,14.0,14.0,70,0.00,,,0.00,meteohub,2015-03-30 14:29:00,
2015-03-30 10:34:00,47.5,37.8,30.21,West,271,11.0,15.0,69,0.00,,,0.00,meteohub,2015-03-30 14:34:00,
2015-03-30 10:39:00,47.7,37.2,30.21,WSW,255,9.0,15.0,67,0.00,,,0.00,meteohub,2015-03-30 14:39:00,
2015-03-30 10:44:00,47.8,38.1,30.22,West,276,10.0,15.0,69,0.00,,,0.00,meteohub,2015-03-30 14:44:00,
2015-03-30 10:49:00,47.8,37.8,30.22,West,270,5.0,14.0,68,0.00,,,0.00,meteohub,2015-03-30 14:49:00,
2015-03-30 10:54:00,48.4,38.3,30.22,WSW,255,9.0,14.0,68,0.00,,,0.00,meteohub,2015-03-30 14:54:00,
2015-03-30 10:59:00,48.7,37.6,30.22,West,281,5.0,14.0,65,0.00,,,0.00,meteohub,2015-03-30 14:59:00,
2015-03-30 11:04:00,49.1,37.8,30.22,WNW,288,9.0,12.0,65,0.00,,,0.00,meteohub,2015-03-30 15:04:00,
2015-03-30 11:09:00,48.9,36.9,30.22,West,263,11.0,12.0,63,0.00,,,0.00,meteohub,2015-03-30 15:09:00,
2015-03-30 11:14:00,48.9,37.8,30.22,West,263,9.0,15.0,65,0.00,,,0.00,meteohub,2015-03-30 15:14:00,
2015-03-30 11:19:00,49.1,37.8,30.22,West,270,7.0,15.0,65,0.00,,,0.00,meteohub,2015-03-30 15:19:00,
2015-03-30 11:24:00,49.3,37.6,30.22,SW,236,8.0,15.0,64,0.00,,,0.00,meteohub,2015-03-30 15:24:00,
2015-03-30 11:29:00,49.5,37.8,30.22,WSW,242,8.0,14.0,64,0.00,,,0.00,meteohub,2015-03-30 15:29:00,
2015-03-30 11:34:00,49.6,37.6,30.22,WNW,298,5.0,12.0,63,0.00,,,0.00,meteohub,2015-03-30 15:34:00,
2015-03-30 11:39:00,49.5,38.1,30.22,West,266,3.0,12.0,65,0.00,,,0.00,meteohub,2015-03-30 15:39:00,
2015-03-30 11:44:00,49.8,38.1,30.22,West,264,8.0,12.0,64,0.00,,,0.00,meteohub,2015-03-30 15:44:00,
2015-03-30 11:49:00,50.2,38.5,30.22,WNW,301,3.0,14.0,64,0.00,,,0.00,meteohub,2015-03-30 15:49:00,
2015-03-30 11:54:00,50.4,37.8,30.22,WSW,255,9.0,14.0,62,0.00,,,0.00,meteohub,2015-03-30 15:54:00,
2015-03-30 11:59:00,50.4,38.7,30.22,SW,229,8.0,15.0,64,0.00,,,0.00,meteohub,2015-03-30 15:59:00,
2015-03-30 12:04:00,50.7,38.7,30.22,West,271,7.0,15.0,63,0.00,,,0.00,meteohub,2015-03-30 16:04:00,
2015-03-30 12:09:00,50.5,38.5,30.22,West,267,10.0,15.0,63,0.00,,,0.00,meteohub,2015-03-30 16:09:00,
2015-03-30 12:14:00,50.5,38.5,30.22,SSW,212,3.0,21.0,63,0.00,,,0.00,meteohub,2015-03-30 16:14:00,
2015-03-30 12:19:00,50.9,37.6,30.22,WSW,248,11.0,21.0,60,0.00,,,0.00,meteohub,2015-03-30 16:19:00,
2015-03-30 12:24:00,51.3,37.4,30.22,WNW,302,10.0,17.0,59,0.00,,,0.00,meteohub,2015-03-30 16:24:00,
2015-03-30 12:29:00,51.4,37.2,30.22,SW,236,4.0,17.0,58,0.00,,,0.00,meteohub,2015-03-30 16:29:00,
2015-03-30 12:34:00,51.6,36.9,30.22,West,278,4.0,19.0,57,0.00,,,0.00,meteohub,2015-03-30 16:34:00,
2015-03-30 12:39:00,52.0,36.9,30.22,WNW,293,9.0,19.0,56,0.00,,,0.00,meteohub,2015-03-30 16:39:00,
2015-03-30 12:44:00,52.3,36.1,30.22,SW,222,9.0,19.0,54,0.00,,,0.00,meteohub,2015-03-30 16:44:00,
2015-03-30 12:50:00,52.5,36.0,30.22,SW,233,9.0,21.0,53,0.00,,,0.00,meteohub,2015-03-30 16:50:00,
2015-03-30 12:55:00,52.7,35.1,30.22,West,270,14.0,21.0,51,0.00,,,0.00,meteohub,2015-03-30 16:55:00,
2015-03-30 13:00:00,53.2,37.0,30.22,WNW,297,6.0,21.0,54,0.00,,,0.00,meteohub,2015-03-30 17:00:00,
2015-03-30 13:05:00,53.2,35.6,30.21,SW,229,6.0,20.0,51,0.00,,,0.00,meteohub,2015-03-30 17:05:00,
2015-03-30 13:10:00,52.9,36.7,30.21,NW,304,10.0,20.0,54,0.00,,,0.00,meteohub,2015-03-30 17:10:00,
2015-03-30 13:15:00,52.9,36.1,30.21,NNW,329,5.0,16.0,53,0.00,,,0.00,meteohub,2015-03-30 17:15:00,
2015-03-30 13:20:00,53.2,34.0,30.21,West,279,7.0,16.0,48,0.00,,,0.00,meteohub,2015-03-30 17:20:00,
2015-03-30 13:25:00,53.6,36.0,30.21,West,263,10.0,16.0,51,0.00,,,0.00,meteohub,2015-03-30 17:25:00,
2015-03-30 13:30:00,53.4,34.7,30.21,West,265,11.0,21.0,49,0.00,,,0.00,meteohub,2015-03-30 17:30:00,
2015-03-30 13:35:00,53.2,35.1,30.21,West,260,7.0,21.0,50,0.00,,,0.00,meteohub,2015-03-30 17:35:00,
2015-03-30 13:40:00,53.1,33.8,30.21,SSW,195,13.0,21.0,48,0.00,,,0.00,meteohub,2015-03-30 17:40:00,
2015-03-30 13:45:00,53.2,35.1,30.22,WSW,252,11.0,24.0,50,0.00,,,0.00,meteohub,2015-03-30 17:45:00,
2015-03-30 13:50:00,53.4,34.2,30.21,WSW,245,10.0,24.0,48,0.00,,,0.00,meteohub,2015-03-30 17:50:00,
2015-03-30 13:55:00,53.8,34.0,30.21,WNW,288,10.0,23.0,47,0.00,,,0.00,meteohub,2015-03-30 17:55:00,
2015-03-30 14:00:00,54.0,34.7,30.21,NNW,330,3.0,23.0,48,0.00,,,0.00,meteohub,2015-03-30 18:00:00,
2015-03-30 14:05:00,54.1,33.8,30.21,WNW,291,13.0,23.0,46,0.00,,,0.00,meteohub,2015-03-30 18:05:00,
2015-03-30 14:10:00,54.5,34.7,30.21,SW,236,23.0,23.0,47,0.00,,,0.00,meteohub,2015-03-30 18:10:00,
2015-03-30 14:15:00,54.9,34.5,30.20,WNW,285,5.0,21.0,46,0.00,,,0.00,meteohub,2015-03-30 18:15:00,
2015-03-30 14:20:00,55.0,34.2,30.20,West,269,8.0,23.0,45,0.00,,,0.00,meteohub,2015-03-30 18:20:00,
2015-03-30 14:25:00,54.3,32.9,30.20,SW,236,12.0,23.0,44,0.00,,,0.00,meteohub,2015-03-30 18:25:00,
2015-03-30 14:30:00,54.7,34.9,30.20,NW,307,5.0,25.0,47,0.00,,,0.00,meteohub,2015-03-30 18:30:00,
2015-03-30 14:35:00,54.7,33.8,30.19,WSW,238,10.0,25.0,45,0.00,,,0.00,meteohub,2015-03-30 18:35:00,
2015-03-30 14:40:00,55.2,34.2,30.19,West,271,8.0,25.0,45,0.00,,,0.00,meteohub,2015-03-30 18:40:00,
2015-03-30 14:45:00,55.2,33.6,30.19,WSW,257,17.0,23.0,44,0.00,,,0.00,meteohub,2015-03-30 18:45:00,
2015-03-30 14:50:00,54.9,31.6,30.18,West,262,15.0,23.0,41,0.00,,,0.00,meteohub,2015-03-30 18:50:00,
2015-03-30 14:55:00,55.4,32.7,30.18,WNW,301,7.0,25.0,42,0.00,,,0.00,meteohub,2015-03-30 18:55:00,
2015-03-30 15:00:00,55.8,33.6,30.18,NW,312,6.0,25.0,43,0.00,,,0.00,meteohub,2015-03-30 19:00:00,
2015-03-30 15:05:00,55.4,33.3,30.18,WNW,303,6.0,25.0,43,0.00,,,0.00,meteohub,2015-03-30 19:05:00,
2015-03-30 15:10:00,55.6,32.9,30.18,West,274,9.0,20.0,42,0.00,,,0.00,meteohub,2015-03-30 19:10:00,
2015-03-30 15:15:00,55.9,33.3,30.18,West,263,17.0,20.0,42,0.00,,,0.00,meteohub,2015-03-30 19:15:00,
2015-03-30 15:20:00,55.9,32.5,30.17,WSW,252,18.0,20.0,41,0.00,,,0.00,meteohub,2015-03-30 19:20:00,
2015-03-30 15:25:00,55.9,32.0,30.18,WNW,302,10.0,21.0,40,0.00,,,0.00,meteohub,2015-03-30 19:25:00,
2015-03-30 15:30:00,56.1,32.7,30.17,West,262,8.0,29.0,41,0.00,,,0.00,meteohub,2015-03-30 19:30:00,
2015-03-30 15:35:00,56.3,32.4,30.17,West,269,11.0,29.0,40,0.00,,,0.00,meteohub,2015-03-30 19:35:00,
2015-03-30 15:40:00,56.1,33.3,30.17,WSW,243,14.0,23.0,42,0.00,,,0.00,meteohub,2015-03-30 19:40:00,
2015-03-30 15:46:00,56.1,32.2,30.17,West,272,13.0,23.0,40,0.00,,,0.00,meteohub,2015-03-30 19:46:00,
2015-03-30 15:51:00,56.1,31.5,30.17,West,270,7.0,21.0,39,0.00,,,0.00,meteohub,2015-03-30 19:51:00,
2015-03-30 15:56:00,56.1,30.9,30.17,NW,307,8.0,21.0,38,0.00,,,0.00,meteohub,2015-03-30 19:56:00,
2015-03-30 16:01:00,56.1,31.5,30.17,NW,307,8.0,22.0,39,0.00,,,0.00,meteohub,2015-03-30 20:01:00,
2015-03-30 16:06:00,56.3,32.9,30.16,West,269,5.0,22.0,41,0.00,,,0.00,meteohub,2015-03-30 20:06:00,
2015-03-30 16:11:00,56.8,32.2,30.16,West,264,13.0,22.0,39,0.00,,,0.00,meteohub,2015-03-30 20:11:00,
2015-03-30 16:16:00,56.1,31.5,30.16,WNW,285,13.0,18.0,39,0.00,,,0.00,meteohub,2015-03-30 20:16:00,
2015-03-30 16:21:00,56.7,32.0,30.16,West,274,7.0,20.0,39,0.00,,,0.00,meteohub,2015-03-30 20:21:00,
2015-03-30 16:26:00,56.7,32.0,30.16,WSW,257,14.0,24.0,39,0.00,,,0.00,meteohub,2015-03-30 20:26:00,
2015-03-30 16:31:00,56.5,31.8,30.16,WNW,285,13.0,24.0,39,0.00,,,0.00,meteohub,2015-03-30 20:31:00,
2015-03-30 16:36:00,56.3,32.4,30.16,NW,316,3.0,24.0,40,0.00,,,0.00,meteohub,2015-03-30 20:36:00,
2015-03-30 16:41:00,56.7,32.0,30.16,NW,309,4.0,20.0,39,0.00,,,0.00,meteohub,2015-03-30 20:41:00,
2015-03-30 16:46:00,56.5,32.4,30.16,NW,317,3.0,16.0,40,0.00,,,0.00,meteohub,2015-03-30 20:46:00,
2015-03-30 16:51:00,56.7,33.3,30.16,WNW,294,7.0,16.0,41,0.00,,,0.00,meteohub,2015-03-30 20:51:00,
2015-03-30 16:56:00,56.8,33.4,30.16,WSW,249,3.0,16.0,41,0.00,,,0.00,meteohub,2015-03-30 20:56:00,
2015-03-30 17:01:00,57.0,32.9,30.16,NW,326,12.0,18.0,40,0.00,,,0.00,meteohub,2015-03-30 21:01:00,
2015-03-30 17:06:00,57.0,32.9,30.16,West,269,6.0,19.0,40,0.00,,,0.00,meteohub,2015-03-30 21:06:00,
2015-03-30 17:11:00,57.6,32.7,30.16,West,277,6.0,19.0,39,0.00,,,0.00,meteohub,2015-03-30 21:11:00,
2015-03-30 17:16:00,57.6,32.7,30.16,WNW,303,12.0,17.0,39,0.00,,,0.00,meteohub,2015-03-30 21:16:00,
2015-03-30 17:21:00,57.0,32.4,30.16,WNW,292,11.0,14.0,39,0.00,,,0.00,meteohub,2015-03-30 21:21:00,
2015-03-30 17:26:00,56.5,33.1,30.16,NW,316,2.0,16.0,41,0.00,,,0.00,meteohub,2015-03-30 21:26:00,
2015-03-30 17:31:00,56.5,33.1,30.16,WNW,303,12.0,16.0,41,0.00,,,0.00,meteohub,2015-03-30 21:31:00,
2015-03-30 17:36:00,56.1,32.7,30.16,WSW,249,6.0,16.0,41,0.00,,,0.00,meteohub,2015-03-30 21:36:00,
2015-03-30 17:41:00,56.1,34.0,30.16,West,270,2.0,16.0,43,0.00,,,0.00,meteohub,2015-03-30 21:41:00,
2015-03-30 17:46:00,56.3,33.4,30.16,West,273,7.0,16.0,42,0.00,,,0.00,meteohub,2015-03-30 21:46:00,
2015-03-30 17:52:00,56.3,32.9,30.16,WNW,297,7.0,15.0,41,0.00,,,0.00,meteohub,2015-03-30 21:52:00,
2015-03-30 17:57:00,56.3,34.2,30.16,WSW,249,3.0,17.0,43,0.00,,,0.00,meteohub,2015-03-30 21:57:00,
2015-03-30 18:02:00,56.7,34.3,30.16,WNW,290,3.0,17.0,43,0.00,,,0.00,meteohub,2015-03-30 22:02:00,
2015-03-30 18:07:00,56.7,33.8,30.16,West,259,7.0,17.0,42,0.00,,,0.00,meteohub,2015-03-30 22:07:00,
2015-03-30 18:12:00,56.8,34.0,30.16,West,278,14.0,14.0,42,0.00,,,0.00,meteohub,2015-03-30 22:12:00,
2015-03-30 18:17:00,57.0,34.2,30.16,West,262,12.0,15.0,42,0.00,,,0.00,meteohub,2015-03-30 22:17:00,
2015-03-30 18:22:00,57.0,34.2,30.16,WNW,285,5.0,15.0,42,0.00,,,0.00,meteohub,2015-03-30 22:22:00,
2015-03-30 18:27:00,56.7,33.8,30.15,WNW,285,7.0,14.0,42,0.00,,,0.00,meteohub,2015-03-30 22:27:00,
2015-03-30 18:32:00,56.7,34.3,30.15,WSW,252,10.0,14.0,43,0.00,,,0.00,meteohub,2015-03-30 22:32:00,
2015-03-30 18:37:00,56.3,34.7,30.15,NW,312,7.0,14.0,44,0.00,,,0.00,meteohub,2015-03-30 22:37:00,
2015-03-30 18:42:00,56.1,34.5,30.16,WNW,294,4.0,13.0,44,0.00,,,0.00,meteohub,2015-03-30 22:42:00,
2015-03-30 18:47:00,56.1,34.5,30.15,WNW,302,5.0,13.0,44,0.00,,,0.00,meteohub,2015-03-30 22:47:00,
2015-03-30 18:52:00,56.1,35.1,30.15,WNW,288,3.0,10.0,45,0.00,,,0.00,meteohub,2015-03-30 22:52:00,
2015-03-30 18:57:00,56.1,35.1,30.16,West,270,4.0,12.0,45,0.00,,,0.00,meteohub,2015-03-30 22:57:00,
2015-03-30 19:02:00,55.9,34.9,30.15,WNW,290,3.0,12.0,45,0.00,,,0.00,meteohub,2015-03-30 23:02:00,
2015-03-30 19:07:00,55.9,35.4,30.15,West,281,5.0,12.0,46,0.00,,,0.00,meteohub,2015-03-30 23:07:00,
2015-03-30 19:12:00,55.9,35.4,30.16,West,276,4.0,10.0,46,0.00,,,0.00,meteohub,2015-03-30 23:12:00,
2015-03-30 19:17:00,55.8,35.2,30.16,WSW,255,3.0,8.0,46,0.00,,,0.00,meteohub,2015-03-30 23:17:00,
2015-03-30 19:22:00,55.8,35.8,30.16,WSW,250,2.0,9.0,47,0.00,,,0.00,meteohub,2015-03-30 23:22:00,
2015-03-30 19:27:00,55.6,35.6,30.16,West,277,4.0,9.0,47,0.00,,,0.00,meteohub,2015-03-30 23:27:00,
2015-03-30 19:32:00,55.6,35.6,30.16,WNW,302,3.0,9.0,47,0.00,,,0.00,meteohub,2015-03-30 23:32:00,
2015-03-30 19:37:00,55.4,35.4,30.16,WNW,290,3.0,9.0,47,0.00,,,0.00,meteohub,2015-03-30 23:37:00,
2015-03-30 19:42:00,55.2,36.0,30.16,West,278,2.0,9.0,48,0.00,,,0.00,meteohub,2015-03-30 23:42:00,